QPF
0.00 0.00 0.00 0.00 0.00 0.00 0.00 0.00 0.00 0.00 0.00 0.00 0.00 0.00 0.00 0.01 0.01 0.01 0.01 0.01 0.01 0.01 0.01 0.01 0.01 0.01 0.01 0.02 0.02 0.02 0.03 0.03 0.03 0.01 0.01 0.00 0.01 0.01 0.01 0.01 0.01 0.01 0.02
0.01 0.00 0.00 0.00 0.00 0.00 0.00 0.00 0.00 0.00 0.00 0.00 0.00 0.01 0.01 0.01 0.01 0.01 0.01 0.01 0.01 0.02 0.02 0.02 0.02 0.02 0.02 0.02 0.03 0.03 0.03 0.04 0.04 0.03 0.01 0.01 0.01 0.01 0.01 0.01 0.01 0.01 0.02
0.01 0.01 0.01 0.00 0.00 0.00 0.00 0.00 0.00 0.00 0.00 0.00 0.00 0.00 0.01 0.01 0.01 0.01 0.01 0.01 0.02 0.02 0.02 0.02 0.02 0.02 0.03 0.03 0.03 0.03 0.03 0.03 0.04 0.04 0.02 0.01 0.01 0.01 0.01 0.01 0.01 0.01 0.01
0.01 0.01 0.01 0.01 0.00 0.00 0.00 0.00 0.00 0.00 0.00 0.00 0.00 0.00 0.01 0.01 0.01 0.01 0.01 0.02 0.02 0.02 0.02 0.02 0.02 0.02 0.02 0.03 0.03 0.03 0.04 0.05 0.05 0.06 0.04 0.03 0.02 0.01 0.01 0.01 0.01 0.01 0.01
0.02 0.02 0.03 0.02 0.02 0.01 0.00 0.00 0.00 0.00 0.00 0.00 0.00 0.00 0.00 0.01 0.01 0.01 0.01 0.02 0.02 0.02 0.02 0.02 0.02 0.03 0.04 0.04 0.04 0.04 0.05 0.06 0.06 0.06 0.04 0.03 0.02 0.01 0.01 0.01 0.01 0.02 0.02
0.03 0.02 0.02 0.02 0.02 0.02 0.01 0.01 0.00 0.00 0.01 0.01 0.01 0.01 0.01 0.01 0.01 0.01 0.01 0.02 0.02 0.02 0.02 0.02 0.03 0.04 0.05 0.06 0.06 0.06 0.06 0.06 0.06 0.05 0.04 0.03 0.02 0.01 0.02 0.03 0.03 0.04 0.03
0.02 0.02 0.03 0.02 0.02 0.01 0.01 0.01 0.01 0.01 0.01 0.01 0.01 0.01 0.01 0.01 0.01 0.02 0.02 0.03 0.03 0.03 0.03 0.03 0.03 0.03 0.05 0.04 0.06 0.07 0.07 0.08 0.08 0.07 0.06 0.04 0.04 0.03 0.04 0.04 0.04 0.04 0.04
0.01 0.01 0.01 0.02 0.02 0.01 0.01 0.01 0.01 0.01 0.01 0.01 0.01 0.01 0.02 0.02 0.02 0.02 0.03 0.04 0.04 0.03 0.03 0.03 0.04 0.04 0.04 0.05 0.05 0.05 0.05 0.06 0.07 0.07 0.06 0.05 0.04 0.04 0.04 0.05 0.06 0.06 0.06
0.00 0.00 0.00 0.01 0.01 0.01 0.01 0.01 0.01 0.01 0.01 0.01 0.01 0.01 0.01 0.02 0.02 0.02 0.03 0.03 0.03 0.03 0.03 0.03 0.04 0.04 0.06 0.06 0.05 0.05 0.05 0.05 0.06 0.07 0.06 0.06 0.06 0.07 0.07 0.07 0.07 0.07 0.06
0.00 0.00 0.01 0.01 0.01 0.01 0.01 0.01 0.01 0.01 0.01 0.01 0.01 0.01 0.01 0.01 0.02 0.02 0.02 0.02 0.02 0.03 0.03 0.03 0.05 0.05 0.06 0.07 0.05 0.05 0.05 0.05 0.05 0.05 0.06 0.06 0.06 0.06 0.08 0.06 0.05 0.06 0.05
0.00 0.00 0.01 0.01 0.01 0.01 0.01 0.01 0.01 0.01 0.01 0.01 0.01 0.01 0.01 0.01 0.02 0.02 0.02 0.03 0.03 0.03 0.04 0.04 0.05 0.07 0.07 0.07 0.06 0.05 0.05 0.05 0.04 0.04 0.04 0.04 0.04 0.05 0.05 0.05 0.04 0.04 0.04
0.01 0.01 0.01 0.00 0.00 0.00 0.00 0.01 0.01 0.01 0.01 0.01 0.01 0.01 0.01 0.01 0.02 0.02 0.03 0.03 0.04 0.04 0.04 0.04 0.05 0.06 0.05 0.06 0.06 0.06 0.06 0.06 0.04 0.05 0.04 0.04 0.04 0.04 0.03 0.03 0.03 0.03 0.03
0.01 0.01 0.01 0.01 0.01 0.00 0.00 0.00 0.00 0.01 0.01 0.01 0.01 0.01 0.01 0.01 0.01 0.02 0.02 0.02 0.03 0.02 0.03 0.04 0.05 0.06 0.05 0.04 0.04 0.05 0.05 0.04 0.04 0.05 0.04 0.03 0.03 0.03 0.03 0.04 0.04 0.05 0.05
0.01 0.01 0.01 0.01 0.01 0.01 0.01 0.01 0.01 0.01 0.01 0.01 0.01 0.01 0.01 0.01 0.01 0.01 0.01 0.01 0.02 0.02 0.03 0.04 0.04 0.04 0.04 0.04 0.04 0.04 0.03 0.03 0.04 0.04 0.04 0.04 0.03 0.03 0.04 0.04 0.04 0.04 0.04
0.01 0.01 0.01 0.01 0.01 0.01 0.01 0.01 0.02 0.02 0.02 0.02 0.02 0.01 0.01 0.01 0.02 0.02 0.01 0.01 0.01 0.02 0.02 0.03 0.03 0.03 0.03 0.03 0.03 0.03 0.03 0.03 0.04 0.03 0.04 0.04 0.04 0.04 0.04 0.03 0.04 0.04 0.04
0.01 0.01 0.01 0.01 0.01 0.01 0.01 0.02 0.02 0.02 0.02 0.02 0.02 0.02 0.02 0.03 0.02 0.02 0.02 0.02 0.02 0.03 0.03 0.03 0.03 0.03 0.03 0.03 0.03 0.03 0.03 0.03 0.03 0.03 0.03 0.03 0.03 0.03 0.04 0.04 0.04 0.04 0.04
0.01 0.01 0.01 0.01 0.02 0.02 0.02 0.02 0.02 0.02 0.02 0.02 0.03 0.03 0.03 0.03 0.03 0.03 0.03 0.03 0.03 0.03 0.03 0.03 0.03 0.03 0.03 0.03 0.03 0.03 0.03 0.03 0.03 0.03 0.03 0.04 0.04 0.05 0.05 0.05 0.05 0.05 0.04
0.01 0.02 0.02 0.02 0.02 0.03 0.03 0.03 0.03 0.03 0.03 0.03 0.04 0.04 0.04 0.04 0.04 0.04 0.04 0.04 0.04 0.04 0.03 0.03 0.03 0.04 0.04 0.04 0.04 0.04 0.04 0.04 0.05 0.05 0.06 0.06 0.06 0.06 0.07 0.07 0.07 0.06 0.05
0.01 0.02 0.02 0.02 0.03 0.03 0.03 0.04 0.04 0.04 0.05 0.05 0.05 0.05 0.05 0.05 0.05 0.05 0.06 0.05 0.05 0.05 0.05 0.05 0.05 0.05 0.06 0.06 0.06 0.06 0.07 0.07 0.07 0.08 0.08 0.08 0.08 0.08 0.08 0.07 0.06 0.06 0.05
0.01 0.02 0.02 0.02 0.03 0.03 0.03 0.04 0.04 0.05 0.05 0.05 0.05 0.06 0.07 0.07 0.07 0.07 0.07 0.07 0.07 0.07 0.07 0.07 0.07 0.07 0.07 0.07 0.08 0.08 0.08 0.08 0.09 0.09 0.09 0.09 0.09 0.08 0.08 0.07 0.07 0.06 0.05
0.02 0.02 0.02 0.02 0.03 0.03 0.04 0.04 0.04 0.05 0.05 0.05 0.06 0.07 0.08 0.08 0.08 0.08 0.08 0.09 0.09 0.09 0.09 0.09 0.09 0.09 0.09 0.09 0.09 0.09 0.09 0.09 0.08 0.08 0.09 0.08 0.08 0.08 0.08 0.07 0.07 0.07 0.06
0.01 0.02 0.02 0.02 0.03 0.03 0.03 0.04 0.04 0.04 0.05 0.05 0.05 0.06 0.07 0.08 0.09 0.09 0.10 0.11 0.11 0.11 0.11 0.11 0.11 0.11 0.11 0.11 0.10 0.10 0.10 0.09 0.09 0.08 0.08 0.09 0.08 0.08 0.08 0.07 0.07 0.06 0.06
0.01 0.01 0.01 0.02 0.02 0.02 0.03 0.03 0.03 0.04 0.04 0.05 0.05 0.06 0.07 0.08 0.08 0.09 0.10 0.11 0.11 0.11 0.12 0.12 0.12 0.12 0.11 0.11 0.11 0.11 0.10 0.10 0.09 0.09 0.09 0.09 0.08 0.08 0.07 0.07 0.06 0.06 0.06
0.01 0.01 0.01 0.01 0.02 0.02 0.02 0.03 0.03 0.04 0.04 0.05 0.06 0.06 0.07 0.08 0.09 0.09 0.10 0.10 0.10 0.11 0.11 0.12 0.12 0.11 0.11 0.11 0.11 0.11 0.11 0.10 0.09 0.09 0.08 0.08 0.07 0.07 0.06 0.06 0.06 0.05 0.05
0.01 0.01 0.01 0.01 0.01 0.02 0.02 0.02 0.03 0.03 0.04 0.05 0.05 0.06 0.07 0.07 0.08 0.09 0.09 0.10 0.10 0.10 0.10 0.11 0.11 0.11 0.11 0.11 0.11 0.10 0.10 0.10 0.09 0.08 0.08 0.07 0.07 0.06 0.05 0.05 0.04 0.04 0.04
0.01 0.01 0.01 0.01 0.01 0.01 0.02 0.02 0.02 0.03 0.04 0.04 0.05 0.05 0.06 0.06 0.07 0.07 0.08 0.09 0.09 0.09 0.10 0.10 0.10 0.10 0.10 0.10 0.10 0.09 0.09 0.08 0.08 0.07 0.06 0.06 0.06 0.05 0.05 0.04 0.04 0.04 0.04
MSLP
1015.39 1015.53 1015.58 1015.54 1015.44 1015.28 1015.10 1014.90 1014.72 1014.55 1014.40 1014.27 1014.15 1014.05 1013.96 1013.88 1013.82 1013.80 1013.80 1013.85 1013.94 1014.05 1014.18 1014.32 1014.46 1014.57 1014.67 1014.74 1014.79 1014.82 1014.84 1014.86 1014.87 1014.88 1014.88 1014.89 1014.91 1014.94 1015.00 1015.10 1015.23 1015.42 1015.64
1015.96 1016.05 1016.04 1015.94 1015.75 1015.52 1015.25 1014.98 1014.71 1014.46 1014.22 1014.00 1013.79 1013.59 1013.40 1013.22 1013.06 1012.93 1012.83 1012.77 1012.74 1012.75 1012.79 1012.85 1012.92 1013.00 1013.09 1013.18 1013.27 1013.37 1013.46 1013.56 1013.65 1013.72 1013.78 1013.83 1013.87 1013.92 1013.98 1014.08 1014.21 1014.40 1014.63
1016.48 1016.56 1016.51 1016.36 1016.13 1015.84 1015.51 1015.17 1014.83 1014.51 1014.19 1013.88 1013.58 1013.29 1013.00 1012.71 1012.44 1012.19 1011.96 1011.77 1011.61 1011.49 1011.41 1011.37 1011.35 1011.38 1011.43 1011.52 1011.64 1011.79 1011.95 1012.12 1012.29 1012.44 1012.57 1012.67 1012.76 1012.83 1012.92 1013.03 1013.18 1013.38 1013.63
1016.90 1016.98 1016.93 1016.76 1016.51 1016.18 1015.82 1015.43 1015.04 1014.66 1014.27 1013.89 1013.50 1013.11 1012.72 1012.32 1011.93 1011.55 1011.20 1010.87 1010.57 1010.32 1010.10 1009.93 1009.82 1009.76 1009.76 1009.83 1009.95 1010.13 1010.34 1010.58 1010.81 1011.04 1011.24 1011.41 1011.55 1011.68 1011.81 1011.96 1012.14 1012.37 1012.64
1017.18 1017.28 1017.24 1017.09 1016.84 1016.51 1016.13 1015.72 1015.30 1014.87 1014.42 1013.97 1013.50 1013.02 1012.53 1012.03 1011.53 1011.04 1010.56 1010.09 1009.66 1009.27 1008.91 1008.62 1008.39 1008.23 1008.15 1008.17 1008.27 1008.44 1008.68 1008.95 1009.25 1009.54 1009.81 1010.05 1010.26 1010.46 1010.65 1010.86 1011.10 1011.37 1011.69
1017.33 1017.45 1017.45 1017.32 1017.10 1016.79 1016.42 1016.01 1015.57 1015.10 1014.61 1014.09 1013.55 1012.99 1012.42 1011.83 1011.23 1010.63 1010.03 1009.46 1008.90 1008.38 1007.90 1007.47 1007.12 1006.85 1006.68 1006.62 1006.66 1006.80 1007.03 1007.32 1007.64 1007.98 1008.31 1008.62 1008.92 1009.20 1009.47 1009.76 1010.07 1010.40 1010.77
1017.37 1017.53 1017.56 1017.48 1017.29 1017.01 1016.67 1016.26 1015.81 1015.32 1014.78 1014.21 1013.61 1012.98 1012.33 1011.66 1010.98 1010.29 1009.61 1008.95 1008.29 1007.66 1007.07 1006.53 1006.06 1005.67 1005.40 1005.24 1005.20 1005.28 1005.46 1005.73 1006.05 1006.42 1006.80 1007.17 1007.55 1007.91 1008.27 1008.65 1009.04 1009.45 1009.89
1017.34 1017.52 1017.59 1017.55 1017.41 1017.17 1016.84 1016.45 1015.99 1015.47 1014.89 1014.27 1013.61 1012.91 1012.19 1011.46 1010.73 1009.99 1009.25 1008.52 1007.80 1007.09 1006.42 1005.78 1005.20 1004.71 1004.31 1004.04 1003.90 1003.89 1004.01 1004.23 1004.54 1004.90 1005.31 1005.74 1006.18 1006.63 1007.08 1007.54 1008.02 1008.52 1009.02
1017.26 1017.47 1017.57 1017.56 1017.45 1017.24 1016.93 1016.53 1016.05 1015.50 1014.87 1014.19 1013.47 1012.72 1011.95 1011.17 1010.40 1009.63 1008.87 1008.11 1007.35 1006.60 1005.86 1005.15 1004.49 1003.89 1003.39 1003.01 1002.76 1002.65 1002.69 1002.85 1003.11 1003.47 1003.89 1004.35 1004.85 1005.37 1005.90 1006.45 1007.01 1007.58 1008.16
1017.17 1017.38 1017.49 1017.50 1017.41 1017.20 1016.89 1016.47 1015.95 1015.34 1014.66 1013.92 1013.13 1012.33 1011.52 1010.71 1009.92 1009.14 1008.38 1007.61 1006.85 1006.08 1005.31 1004.55 1003.82 1003.14 1002.55 1002.07 1001.72 1001.52 1001.47 1001.56 1001.79 1002.12 1002.55 1003.04 1003.58 1004.15 1004.75 1005.37 1006.00 1006.65 1007.29
1017.07 1017.26 1017.37 1017.37 1017.26 1017.04 1016.69 1016.23 1015.65 1014.97 1014.22 1013.40 1012.55 1011.70 1010.85 1010.02 1009.23 1008.46 1007.71 1006.96 1006.21 1005.44 1004.66 1003.87 1003.09 1002.35 1001.69 1001.13 1000.70 1000.42 1000.30 1000.34 1000.53 1000.85 1001.28 1001.79 1002.37 1002.99 1003.64 1004.32 1005.01 1005.71 1006.41
1016.97 1017.13 1017.20 1017.17 1017.02 1016.74 1016.33 1015.79 1015.14 1014.38 1013.54 1012.64 1011.73 1010.82 1009.94 1009.10 1008.31 1007.55 1006.82 1006.10 1005.36 1004.60 1003.82 1003.01 1002.21 1001.43 1000.71 1000.10 999.61 999.28 999.12 999.13 999.31 999.63 1000.07 1000.61 1001.22 1001.88 1002.58 1003.30 1004.03 1004.78 1005.52
1016.89 1016.99 1017.00 1016.91 1016.68 1016.33 1015.83 1015.20 1014.45 1013.59 1012.66 1011.69 1010.71 1009.76 1008.85 1007.99 1007.20 1006.45 1005.74 1005.03 1004.31 1003.55 1002.76 1001.95 1001.12 1000.31 999.56 998.92 998.40 998.06 997.88 997.90 998.08 998.42 998.89 999.46 1000.11 1000.81 1001.55 1002.31 1003.08 1003.87 1004.65
1016.83 1016.86 1016.79 1016.61 1016.30 1015.84 1015.24 1014.51 1013.65 1012.70 1011.68 1010.64 1009.60 1008.60 1007.67 1006.80 1006.00 1005.25 1004.53 1003.82 1003.09 1002.33 1001.52 1000.68 999.83 998.99 998.23 997.56 997.05 996.71 996.55 996.59 996.82 997.20 997.72 998.34 999.04 999.78 1000.56 1001.35 1002.16 1002.98 1003.80
1016.81 1016.75 1016.59 1016.31 1015.89 1015.33 1014.63 1013.80 1012.84 1011.81 1010.72 1009.61 1008.53 1007.49 1006.53 1005.64 1004.83 1004.06 1003.32 1002.59 1001.82 1001.01 1000.16 999.28 998.38 997.52 996.73 996.07 995.56 995.24 995.13 995.22 995.50 995.94 996.53 997.21 997.97 998.76 999.58 1000.42 1001.26 1002.11 1002.97
1016.80 1016.66 1016.41 1016.03 1015.52 1014.87 1014.07 1013.15 1012.13 1011.03 1009.88 1008.74 1007.63 1006.57 1005.59 1004.68 1003.83 1003.03 1002.25 1001.45 1000.62 999.74 998.81 997.86 996.91 995.99 995.17 994.50 994.00 993.71 993.64 993.78 994.13 994.65 995.31 996.06 996.88 997.73 998.60 999.47 1000.35 1001.23 1002.13
1016.80 1016.57 1016.24 1015.79 1015.19 1014.47 1013.60 1012.63 1011.56 1010.43 1009.26 1008.11 1006.98 1005.92 1004.92 1003.99 1003.11 1002.26 1001.41 1000.53 999.60 998.63 997.60 996.55 995.51 994.54 993.67 992.96 992.46 992.18 992.15 992.34 992.75 993.34 994.06 994.88 995.76 996.67 997.59 998.51 999.43 1000.35 1001.29
1016.74 1016.45 1016.06 1015.55 1014.90 1014.13 1013.24 1012.24 1011.16 1010.03 1008.88 1007.73 1006.63 1005.57 1004.58 1003.63 1002.71 1001.80 1000.88 999.90 998.87 997.78 996.64 995.47 994.34 993.27 992.33 991.58 991.05 990.77 990.75 990.97 991.42 992.05 992.83 993.70 994.63 995.59 996.56 997.52 998.48 999.44 1000.43
1016.58 1016.25 1015.82 1015.28 1014.62 1013.84 1012.95 1011.96 1010.91 1009.81 1008.70 1007.60 1006.53 1005.50 1004.52 1003.56 1002.62 1001.66 1000.67 999.60 998.46 997.26 996.00 994.72 993.47 992.31 991.29 990.47 989.90 989.59 989.55 989.77 990.22 990.87 991.67 992.58 993.54 994.54 995.54 996.54 997.54 998.55 999.57
1016.27 1015.92 1015.48 1014.94 1014.29 1013.53 1012.68 1011.74 1010.75 1009.71 1008.66 1007.62 1006.61 1005.63 1004.68 1003.74 1002.79 1001.80 1000.75 999.61 998.39 997.09 995.72 994.35 993.00 991.74 990.64 989.75 989.10 988.74 988.65 988.84 989.26 989.90 990.69 991.60 992.57 993.58 994.61 995.64 996.67 997.72 998.78
1015.79 1015.45 1015.02 1014.51 1013.89 1013.19 1012.39 1011.53 1010.60 1009.65 1008.69 1007.73 1006.79 1005.88 1004.97 1004.07 1003.13 1002.14 1001.07 999.90 998.62 997.26 995.83 994.38 992.96 991.63 990.45 989.48 988.77 988.33 988.17 988.30 988.67 989.25 990.01 990.88 991.84 992.84 993.87 994.92 995.97 997.04 998.14
1015.16 1014.84 1014.44 1013.98 1013.42 1012.78 1012.06 1011.28 1010.45 1009.59 1008.72 1007.85 1007.00 1006.17 1005.33 1004.48 1003.58 1002.62 1001.56 1000.40 999.13 997.75 996.30 994.83 993.37 992.00 990.77 989.74 988.96 988.44 988.21 988.25 988.54 989.05 989.74 990.56 991.47 992.45 993.46 994.50 995.56 996.64 997.76
1014.43 1014.14 1013.79 1013.38 1012.90 1012.34 1011.71 1011.02 1010.28 1009.52 1008.75 1007.98 1007.22 1006.46 1005.71 1004.93 1004.10 1003.20 1002.21 1001.10 999.87 998.53 997.12 995.67 994.23 992.85 991.60 990.55 989.71 989.13 988.82 988.78 988.98 989.40 990.00 990.75 991.59 992.52 993.49 994.50 995.55 996.62 997.73
1013.69 1013.44 1013.15 1012.80 1012.40 1011.92 1011.38 1010.78 1010.14 1009.47 1008.79 1008.11 1007.45 1006.78 1006.12 1005.42 1004.68 1003.87 1002.96 1001.94 1000.80 999.56 998.23 996.85 995.46 994.14 992.91 991.85 991.00 990.38 990.01 989.88 990.00 990.32 990.83 991.49 992.26 993.11 994.03 994.99 995.99 997.03 998.12
1013.01 1012.82 1012.59 1012.32 1011.99 1011.59 1011.14 1010.63 1010.08 1009.50 1008.91 1008.32 1007.74 1007.16 1006.58 1005.97 1005.33 1004.61 1003.81 1002.91 1001.88 1000.76 999.55 998.28 997.00 995.75 994.59 993.57 992.73 992.09 991.68 991.50 991.54 991.78 992.20 992.76 993.44 994.22 995.06 995.95 996.90 997.88 998.91
1012.50 1012.36 1012.20 1012.00 1011.75 1011.44 1011.06 1010.64 1010.17 1009.67 1009.16 1008.64 1008.13 1007.62 1007.11 1006.59 1006.03 1005.42 1004.72 1003.93 1003.04 1002.05 1000.98 999.85 998.70 997.57 996.50 995.55 994.75 994.13 993.71 993.49 993.47 993.64 993.98 994.46 995.06 995.75 996.50 997.32 998.18 999.09 1000.05
Thickness
5624 5625 5626 5628 5630 5632 5633 5635 5636 5637 5637 5636 5637 5636 5635 5634 5632 5629 5629 5627 5625 5624 5621 5619 5618 5614 5611 5608 5604 5600 5597 5594 5597 5605 5598 5593 5587 5583 5579 5574 5571 5567 5563
5608 5610 5611 5613 5615 5617 5620 5623 5624 5625 5626 5626 5626 5626 5626 5625 5624 5622 5622 5620 5619 5618 5616 5614 5613 5610 5607 5604 5600 5597 5594 5591 5589 5594 5593 5585 5581 5577 5573 5567 5564 5560 5555
5591 5593 5594 5596 5599 5602 5605 5608 5611 5612 5614 5615 5615 5616 5616 5616 5615 5614 5613 5613 5612 5612 5610 5609 5608 5604 5603 5600 5596 5594 5591 5587 5584 5584 5586 5580 5574 5569 5563 5559 5555 5551 5548
5573 5575 5576 5579 5582 5585 5589 5592 5595 5598 5600 5603 5604 5606 5607 5606 5606 5606 5604 5604 5604 5604 5604 5603 5602 5599 5598 5595 5591 5589 5585 5582 5579 5577 5577 5573 5567 5560 5554 5551 5546 5542 5539
5556 5558 5560 5562 5565 5569 5573 5576 5579 5583 5586 5589 5591 5594 5596 5596 5597 5596 5594 5594 5594 5595 5596 5596 5595 5594 5592 5588 5585 5583 5579 5576 5573 5570 5569 5565 5560 5550 5548 5545 5541 5536 5531
5539 5541 5542 5544 5547 5552 5556 5560 5564 5568 5571 5574 5578 5581 5584 5586 5586 5584 5583 5583 5583 5585 5586 5587 5586 5584 5582 5579 5577 5575 5572 5570 5569 5565 5563 5560 5558 5551 5544 5537 5531 5525 5523
5521 5523 5525 5527 5531 5534 5537 5542 5547 5551 5555 5559 5563 5566 5571 5574 5573 5572 5570 5570 5572 5574 5575 5576 5576 5576 5572 5571 5568 5564 5563 5562 5560 5559 5557 5557 5551 5546 5537 5529 5524 5521 5519
5503 5506 5507 5510 5513 5516 5520 5525 5529 5533 5538 5542 5547 5550 5555 5559 5559 5558 5557 5556 5560 5563 5564 5564 5565 5566 5564 5560 5557 5555 5555 5555 5552 5548 5548 5549 5545 5540 5533 5527 5520 5511 5505
5485 5487 5489 5491 5495 5499 5503 5507 5511 5515 5520 5524 5528 5532 5537 5543 5543 5542 5540 5542 5546 5550 5551 5552 5552 5553 5553 5548 5544 5544 5544 5545 5543 5539 5538 5537 5533 5529 5523 5514 5507 5499 5496
5466 5468 5470 5473 5477 5480 5485 5489 5493 5496 5502 5506 5510 5513 5517 5523 5526 5525 5523 5525 5529 5533 5535 5537 5536 5537 5538 5534 5532 5532 5532 5534 5529 5525 5523 5522 5519 5515 5511 5507 5502 5494 5488
5447 5450 5453 5456 5459 5463 5467 5470 5474 5478 5483 5487 5492 5496 5499 5502 5506 5507 5507 5507 5509 5512 5516 5520 5522 5522 5521 5520 5519 5520 5523 5520 5515 5512 5510 5508 5504 5502 5499 5496 5491 5487 5482
5428 5431 5435 5438 5441 5445 5448 5451 5454 5458 5463 5468 5472 5478 5482 5484 5486 5488 5489 5489 5490 5491 5496 5500 5503 5504 5505 5505 5505 5507 5507 5504 5501 5498 5496 5494 5492 5489 5486 5481 5477 5473 5470
5409 5412 5416 5421 5423 5426 5428 5432 5435 5438 5442 5447 5451 5457 5464 5466 5467 5469 5470 5471 5472 5471 5475 5479 5481 5483 5486 5488 5490 5490 5489 5488 5486 5485 5484 5483 5479 5476 5471 5465 5460 5456 5452
5390 5394 5399 5402 5406 5408 5410 5413 5416 5419 5422 5426 5430 5435 5441 5446 5448 5449 5450 5452 5453 5453 5454 5457 5460 5463 5465 5467 5469 5470 5470 5471 5472 5471 5469 5466 5461 5458 5455 5452 5446 5440 5435
5371 5375 5379 5382 5385 5389 5392 5394 5397 5400 5401 5405 5410 5413 5418 5425 5429 5428 5429 5431 5433 5433 5433 5435 5438 5442 5445 5448 5450 5451 5451 5450 5451 5451 5450 5448 5445 5442 5439 5436 5432 5427 5423
5352 5355 5358 5361 5364 5368 5373 5378 5381 5383 5386 5388 5391 5394 5398 5403 5407 5409 5410 5412 5413 5413 5413 5416 5420 5422 5424 5427 5429 5431 5431 5431 5432 5431 5430 5431 5430 5427 5424 5419 5416 5413 5410
5331 5334 5338 5341 5344 5348 5352 5357 5363 5369 5369 5372 5374 5377 5379 5383 5387 5390 5391 5392 5393 5393 5394 5397 5399 5402 5404 5406 5409 5411 5413 5413 5413 5412 5412 5412 5411 5410 5407 5404 5400 5397 5393
5312 5315 5318 5321 5323 5327 5330 5334 5338 5342 5349 5353 5355 5357 5359 5363 5366 5369 5370 5371 5373 5374 5374 5376 5379 5381 5384 5386 5388 5390 5393 5394 5394 5394 5394 5394 5393 5391 5389 5387 5385 5382 5377
5294 5296 5298 5300 5303 5306 5310 5313 5316 5319 5323 5328 5333 5337 5338 5341 5344 5346 5348 5348 5351 5354 5355 5357 5359 5362 5364 5366 5369 5371 5374 5376 5376 5376 5376 5375 5374 5372 5371 5369 5367 5364 5361
5275 5277 5278 5280 5283 5285 5289 5291 5294 5296 5299 5303 5308 5312 5315 5317 5320 5323 5324 5324 5326 5329 5332 5336 5339 5342 5345 5348 5351 5353 5355 5357 5357 5357 5358 5358 5357 5355 5354 5352 5349 5345 5342
5256 5257 5259 5260 5262 5264 5266 5269 5271 5273 5276 5280 5284 5288 5291 5292 5295 5298 5300 5301 5303 5305 5309 5313 5317 5321 5324 5327 5331 5334 5336 5338 5340 5340 5339 5339 5338 5337 5336 5334 5331 5328 5323
5236 5237 5239 5240 5242 5243 5245 5247 5249 5252 5255 5257 5261 5264 5267 5268 5270 5273 5275 5278 5280 5283 5286 5291 5296 5300 5304 5307 5310 5313 5315 5318 5320 5321 5321 5320 5319 5318 5317 5315 5312 5309 5304
5217 5218 5219 5221 5222 5224 5225 5226 5228 5231 5233 5235 5238 5241 5243 5244 5247 5249 5252 5255 5258 5262 5266 5270 5275 5280 5284 5287 5290 5293 5296 5298 5300 5301 5301 5300 5300 5298 5297 5295 5293 5290 5286
5200 5200 5202 5203 5204 5205 5206 5207 5208 5210 5212 5214 5216 5219 5221 5223 5225 5228 5231 5234 5237 5241 5245 5249 5254 5258 5263 5267 5270 5273 5276 5279 5281 5282 5282 5281 5280 5279 5277 5275 5273 5270 5267
5183 5184 5185 5186 5187 5188 5188 5189 5190 5192 5193 5195 5197 5199 5201 5203 5205 5208 5210 5213 5217 5221 5225 5228 5233 5238 5242 5246 5249 5253 5256 5259 5261 5262 5262 5261 5260 5259 5257 5254 5252 5249 5246
5169 5169 5170 5170 5171 5171 5172 5173 5174 5175 5176 5178 5179 5181 5182 5184 5186 5189 5191 5194 5197 5201 5205 5209 5213 5217 5222 5226 5230 5233 5236 5239 5240 5241 5241 5240 5239 5237 5236 5234 5231 5228 5225